7 * 24
多渠道服务支持
STARLINK-11248 是 SpaceX Starlink 卫星互联网项目中的一颗低轨通信卫星。该卫星属于 Starlink 群体部署的一部分,旨在为全球用户提供高速互联网服务。它运行在约 550 公里的近地轨道,采用先进推进系统和激光通信技术,以提高网络效率和减少延迟。STARLINK-11248 于近期由猎鹰 9 号火箭发射入轨,与其他 Starlink 卫星共同构建覆盖全球的宽带网络,支持偏远地区和高需求区域的互联网接入。
美国
(US)
| 数据来源 | 国际轨道数据 |
| 星历时间: | 2025-10-28T02:47:25+0800 1天前 查看轨道信息 |
| 半长轴: | 6729.825km |
| 偏心率: | 0.0003024 |
| 轨道倾角: | 53.155° |
| 近地点辐角 | 39.497° |
| 升交点赤经 | 66.168° |
| 平近点角 | 320.627° |
| 近地点: | 349.654km |
| 远地点: | 353.726km |
| 周期: | 91.573分钟 |
| 每日圈数: | 15.725235 |